www.pogodaiklimat.ru

Погода и климат >> Архив погоды >> Австралия >> Западная Австралия >> Марди


ПОГОДА в Марди

  • Прогноз погоды в Марди
  • Монитор погоды в Марди

АРХИВ ПОГОДЫ в Марди

Время (UTC), дата Ветер
(напр.,м/с)
 
Видим.   Явления Облачность Т
(С)
Тd
(С)
f
(%)
Тe
(С)
Тes
(С)
Комфортность P
(гПа)
Po
(гПа)
Тmin
(С)
Tmax
(С)
R
(мм)
R24
(мм)
S
(см)
10 14.05 С 3 н/о н/о +25.9 +4.4 25 +25 +25 комфорт 1016.2 1014.8
12 14.05 СВ 3 н/о н/о +21.4 +10.6 50 +23 +23 комфорт 1017.3 1015.9
13 14.05 СВ 3 н/о н/о +20.2 +8.5 47 +22 +22 комфорт 1017.6 1016.2 +33.4
15 14.05 Ю 2 н/о н/о +16.8 +1.3 35 +17 +17 1017.7 1016.3
16 14.05 Ю 3 н/о н/о +16.3 +1.6 37 +16 +16 1017.5 1016.1
18 14.05 ЮВ 3 н/о н/о +15.2 +1.7 40 +15 +15 1017.3 1015.9
19 14.05 Ю 3 н/о н/о +14.7 +0.9 39 +14 +14 1017.0 1015.6
21 14.05 ЮВ 3 н/о н/о +14.3 +1.6 42 +14 +14 1016.9 1015.5
22 14.05 Ю 3 н/о н/о +14.6 +0.8 39 +14 +14 1017.3 1015.9
00 15.05 ЮВ 2 н/о н/о +19.3 -1.7 24 +20 +20 1018.3 1016.9
01 15.05 В 4 н/о н/о +25.8 -9.4 9 +23 +23 комфорт 1018.2 1016.8 +13.5
03 15.05 СВ 8 н/о н/о +31.6 -8.3 7 +27 +27 жарко 1017.0 1015.6
04 15.05 СВ 7 н/о н/о +32.6 -5.9 8 +29 +29 жарко 1016.2 1014.8
06 15.05 С 6 н/о н/о +33.1 -2.6 10 +29 +29 жарко 1014.8 1013.4
07 15.05 С 6 н/о н/о +32.8 +0.8 13 +30 +30 жарко 1014.5 1013.1
09 15.05 С 5 н/о н/о +30.4 +1.8 16 +28 +28 жарко 1014.8 1013.4
10 15.05 С 4 н/о н/о +27.6 +5.8 25 +27 +27 жарко 1015.3 1013.9
12 15.05 С 1 н/о н/о +22.6 +11.7 50 +25 +25 комфорт 1016.5 1015.1
13 15.05 ЮЗ 2 н/о н/о +20.8 +10.6 52 +23 +23 комфорт 1017.0 1015.6 +34.1
15 15.05 Ю 2 н/о н/о +18.7 +7.8 49 +20 +20 1016.7 1015.3
16 15.05 Ю 3 н/о н/о +19.6 +8.9 50 +21 +21 комфорт 1016.5 1015.1
18 15.05 Ю 2 н/о н/о +17.6 +6.2 47 +18 +18 1015.9 1014.5
19 15.05 Ю 2 н/о н/о +16.7 +4.4 44 +17 +17 1015.6 1014.2
21 15.05 ЮВ 2 н/о н/о +15.4 +1.9 40 +15 +15 1015.7 1014.3
22 15.05 ЮВ 2 н/о н/о +14.9 +2.1 42 +15 +15 1016.0 1014.6
00 16.05 ЮВ 2 н/о н/о +21.8 +4.4 32 +22 +22 комфорт 1016.5 1015.1
01 16.05 ЮВ 3 н/о н/о +27.3 +3.7 22 +26 +26 жарко 1016.9 1015.5 +14.8
03 16.05 Ю 1 н/о н/о +31.3 -0.4 13 +28 +28 жарко 1016.3 1014.9
04 16.05 СВ 2 н/о н/о +32.8 -0.3 12 +29 +29 жарко 1015.4 1014.0
06 16.05 СЗ 4 н/о н/о +32.9 +0.9 13 +30 +30 жарко 1014.0 1012.6
07 16.05 СЗ 4 н/о н/о +32.5 +0.6 13 +29 +29 жарко 1014.0 1012.6
09 16.05 СЗ 4 н/о н/о +30.2 +6.8 23 +29 +29 жарко 1014.3 1012.9
10 16.05 СЗ 2 н/о н/о +26.6 +8.1 31 +27 +27 жарко 1014.8 1013.4
12 16.05 СЗ 1 н/о н/о +23.1 +7.2 36 +24 +24 комфорт 1015.8 1014.4
13 16.05 штиль 0 н/о н/о +21.5 +5.8 36 +22 +22 комфорт 1016.1 1014.7 +34.4
15 16.05 СЗ 2 н/о н/о +19.6 +6.4 42 +21 +21 комфорт 1016.2 1014.8
16 16.05 ЮВ 1 н/о н/о +19.1 +6.6 44 +21 +21 комфорт 1015.7 1014.3
18 16.05 штиль 0 н/о н/о +18.5 +7.3 48 +19 +19 1015.1 1013.7
19 16.05 штиль 0 н/о н/о +16.7 +5.0 46 +17 +17 1014.6 1013.2
21 16.05 штиль 0 н/о н/о +15.4 +3.5 45 +15 +15 1014.3 1012.9
22 16.05 В 2 н/о н/о +14.7 +3.5 47 +15 +15 1014.5 1013.1
00 17.05 ЮЗ 1 н/о н/о +19.8 +3.9 35 +21 +21 комфорт 1015.2 1013.8
01 17.05 Ю 1 н/о н/о +24.7 +3.9 26 +24 +24 комфорт 1015.5 1014.1 +14.5
03 17.05 ЮВ 3 н/о н/о +32.4 -7.8 7 +28 +28 жарко 1014.7 1013.3
04 17.05 Ю 2 н/о н/о +33.7 -11.1 5 +29 +29 жарко 1013.8 1012.4
06 17.05 ЮВ 3 н/о н/о +34.7 -10.4 5 +30 +30 жарко 1012.0 1010.6
07 17.05 З 5 н/о н/о +34.5 -4.5 8 +30 +30 жарко 1011.8 1010.4
09 17.05 З 6 н/о н/о +31.1 +3.2 17 +29 +29 жарко 1012.0 1010.6
10 17.05 З 4 н/о н/о +27.2 +11.7 38 +28 +28 жарко 1012.5 1011.1
12 17.05 ЮЗ 2 н/о н/о +23.2 +11.9 49 +26 +26 жарко 1013.7 1012.3
13 17.05 Ю 2 н/о н/о +22.1 +6.7 37 +23 +23 комфорт 1014.1 1012.7 +35.8
15 17.05 Ю 2 н/о н/о +20.2 -3.4 20 +21 +21 комфорт 1014.3 1012.9
16 17.05 Ю 3 н/о н/о +19.3 -4.2 20 +19 +19 1014.2 1012.8
18 17.05 Ю 3 н/о н/о +17.3 -4.0 23 +17 +17 1013.8 1012.4
19 17.05 Ю 3 н/о н/о +16.5 -3.6 25 +17 +17 1013.6 1012.2
21 17.05 ЮВ 4 н/о н/о +17.2 +0.4 32 +17 +17 1013.3 1011.9
22 17.05 ЮВ 2 н/о н/о +16.7 +1.2 35 +17 +17 1013.7 1012.3
00 18.05 В 2 н/о н/о +21.4 +2.2 28 +21 +21 комфорт 1015.3 1013.9
01 18.05 СВ 2 н/о н/о +25.6 +0.3 19 +24 +24 комфорт 1015.8 1014.4 +15.1
03 18.05 СВ 3 н/о н/о +31.5 -2.5 11 +28 +28 жарко 1015.3 1013.9
04 18.05 СВ 4 н/о н/о +32.3 -3.2 10 +29 +29 жарко 1014.6 1013.2
06 18.05 С 7 н/о н/о +30.9 +4.6 19 +29 +29 жарко 1013.4 1012.0
07 18.05 С 7 н/о н/о +30.7 +4.4 19 +29 +29 жарко 1013.5 1012.1
09 18.05 С 5 н/о н/о +26.9 +10.6 36 +28 +28 жарко 1014.1 1012.7
10 18.05 С 1 н/о н/о +24.4 +13.9 52 +27 +27 жарко 1014.9 1013.5
12 18.05 С 1 н/о н/о +21.3 +14.7 66 +24 +24 комфорт 1016.4 1015.0
13 18.05 С 1 н/о н/о +20.2 +14.3 69 +24 +24 комфорт 1016.7 1015.3 +32.9
15 18.05 С 2 н/о н/о +17.8 +10.2 61 +18 +18 1016.8 1015.4
16 18.05 ЮВ 3 н/о н/о +17.5 +11.5 68 +18 +18 1016.5 1015.1
18 18.05 ЮВ 3 н/о н/о +17.0 +11.3 69 +17 +17 1016.2 1014.8
19 18.05 ЮВ 2 н/о н/о +16.6 +11.1 70 +17 +17 1015.9 1014.5
21 18.05 ЮВ 1 н/о н/о +15.2 +9.8 70 +16 +16 1015.7 1014.3
22 18.05 ЮВ 3 н/о н/о +15.1 +8.8 66 +15 +15 1016.0 1014.6
00 19.05 В 4 н/о н/о +21.3 +5.6 36 +22 +22 комфорт 1017.4 1016.0
01 19.05 В 2 н/о н/о +24.4 +4.7 28 +24 +24 комфорт 1017.9 1016.5 +14.4
03 19.05 С 4 н/о н/о +30.4 +1.8 16 +28 +28 жарко 1017.2 1015.8
04 19.05 С 4 н/о н/о +30.8 +5.3 20 +29 +29 жарко 1016.4 1015.0
06 19.05 С 4 н/о н/о +31.1 +5.5 20 +29 +29 жарко 1015.0 1013.6
07 19.05 С 3 н/о н/о +31.3 +4.2 18 +29 +29 жарко 1014.8 1013.4
09 19.05 С 3 н/о н/о +27.7 +10.4 34 +28 +28 жарко 1015.1 1013.7
10 19.05 С 2 н/о н/о +24.8 +14.6 53 +27 +27 жарко 1015.3 1013.9
12 19.05 С 2 н/о н/о +21.8 +15.6 68 +25 +25 комфорт 1016.4 1015.0
13 19.05 С 2 н/о н/о +20.7 +15.5 72 +24 +24 комфорт 1016.9 1015.5 +32.9
15 19.05 Ю 2 н/о н/о +18.3 +13.0 71 +19 +19 1017.6 1016.2
16 19.05 Ю 3 н/о н/о +18.1 +13.2 73 +19 +19 1017.4 1016.0
18 19.05 Ю 3 н/о н/о +18.1 +14.6 80 +18 +18 1017.0 1015.6
19 19.05 Ю 2 н/о н/о +16.9 +13.8 82 +17 +17 1016.9 1015.5
21 19.05 Ю 3 н/о н/о +16.1 +14.1 88 +16 +16 1017.1 1015.7
22 19.05 Ю 2 н/о н/о +15.8 +13.8 88 +16 +16 1017.3 1015.9
00 20.05 Ю 1 н/о н/о +19.9 +14.9 73 +24 +24 комфорт 1018.1 1016.7
01 20.05 Ю 1 н/о н/о +24.6 +11.9 45 +26 +26 жарко 1018.5 1017.1 +15.2
03 20.05 Ю 2 н/о н/о +30.4 +4.2 19 +28 +28 жарко 1018.2 1016.8
04 20.05 Ю 1 н/о н/о +32.4 +2.5 15 +30 +30 жарко 1017.3 1015.9
06 20.05 З 5 н/о н/о +32.6 +6.7 20 +31 +31 жарко 1015.8 1014.4
07 20.05 З 5 н/о н/о +31.9 +8.2 23 +31 +31 жарко 1015.8 1014.4
09 20.05 З 5 н/о н/о +29.7 +9.3 28 +29 +29 жарко 1016.0 1014.6
10 20.05 З 4 н/о н/о +26.6 +14.7 48 +29 +29 жарко 1016.2 1014.8
12 20.05 З 3 н/о н/о +24.4 +15.6 58 +27 +27 жарко 1017.2 1015.8
13 20.05 ЮЗ 3 н/о н/о +23.4 +15.7 62 +28 +28 душно 1017.5 1016.1 +33.7
15 20.05 Ю 3 н/о н/о +20.9 +12.6 59 +24 +24 комфорт 1017.5 1016.1
16 20.05 Ю 3 н/о н/о +20.6 +11.2 55 +23 +23 комфорт 1017.1 1015.7
18 20.05 Ю 2 н/о н/о +18.3 +8.8 54 +19 +19 1016.8 1015.4
19 20.05 Ю 2 н/о н/о +17.9 +8.2 53 +18 +18 1016.5 1015.1
21 20.05 ЮЗ 2 н/о н/о +16.4 +7.6 56 +17 +17 1016.4 1015.0
22 20.05 ЮЗ 2 н/о н/о +15.9 +7.1 56 +16 +16 1016.6 1015.2
00 21.05 штиль 0 н/о н/о +20.3 +5.5 38 +21 +21 комфорт 1017.5 1016.1
01 21.05 штиль 0 н/о н/о +26.1 +5.1 26 +25 +25 комфорт 1017.9 1016.5 +15.5
03 21.05 ЮЗ 2 н/о н/о +33.2 +3.1 15 +30 +30 жарко 1017.0 1015.6
04 21.05 С 1 н/о н/о +34.4 +2.0 13 +31 +31 жарко 1016.4 1015.0
06 21.05 СЗ 6 н/о н/о +33.7 +4.4 16 +31 +31 жарко 1015.2 1013.8
07 21.05 СЗ 6 н/о н/о +33.0 +3.9 16 +30 +30 жарко 1015.1 1013.7
09 21.05 СЗ 3 н/о н/о +29.9 +8.9 27 +29 +29 жарко 1015.5 1014.1

 

Местоположение метеостанции Марди (Западная Австралия, Австралия): широта -21.18 долгота 115.97 высота над уровнем моря 12 м.

В архиве по умолчанию представлена погода в Марди за последнюю неделю. Архивные данные за месяц целиком и за предыдущие месяцы, начиная с января 2011 года, Вы можете получить, выбрав интересующий диапазон дат из раскрывающегося списка и нажав кнопку "Ввод!".


*Определитесь, кто Вы:
робот инопланетянин человек

Внимание! Время в таблицах - всемирное. Для получения местного времени необходимо прибавить поправку, которая равна 8 ч.

Смотрите также архив погоды в соседних городах и на ближайших метеорологических станциях:

Погода в Барроу-Айленд (Западная Австралия, Австралия) (68 км)
Погода на Острове Варанас (Западная Австралия, Австралия) (72 км)
Погода в Каррате (Западная Австралия, Австралия) (98 км)
Погода на Острове Тевенард (Западная Австралия, Австралия) (103 км)
Погода в Онслоу (Западная Австралия, Австралия) (104 км)
Погода в Роборн аэропорту (Западная Австралия, Австралия) (132 км)
Погода в Лермонте (Западная Австралия, Австралия) (228 км)
Погода в Параберду (Западная Австралия, Австралия) (287 км)
Погода в Порт-Хедленде Apardoo (Западная Австралия, Австралия) (291 км)
Погода в Марбл-баре (Западная Австралия, Австралия) (392 км)

Пояснения к столбцам:

Ветер - указаны скорость ветра в м/с - средняя за 10 мин, порывы в срок и между сроками (в фигурных скобках) и направление, откуда дует ветер: С - северный, СВ - северо-восточный, В - восточный, ЮВ - юго-восточный, Ю - южный, ЮЗ - юго-западный, З - западный, СЗ - северо-западный.
Видимость - горизонтальная дальность видимости в метрах или километрах. При видимости от 1 до 10 км при отсутствии осадков обычно наблюдается дымка, при ухудшении видимости до 1 км и менее - туман. В сухую погоду видимость может ухудшаться дымом, пылью или мглою.
Явления - указаны атмосферные явления, наблюдавшиеся в срок или в последний час перед сроком; фигурными скобками обозначены явления, наблюдавшиеся между сроками (за 1-3 часа до срока); квадратными скобками обозначены град или гололедные отложения с указанием их диаметра в мм.
Облачность - указаны через наклонную черту общая и нижняя облачность в баллах и высота нижней границы облаков в метрах; квадратными скобками обозначены формы облаков: Ci - перистые, Cs - перисто-слоистые, Cc - перисто-кучевые, Ac - высококучевые, As - высокослоистые, Sc - слоисто-кучевые, Ns - слоисто-дождевые, Cu - кучевые, Cb - кучево-дождевые. Подробнее классификацию облаков см. в Атласе облаков (PDF).
T - Температура воздуха - температура, измеренная на высоте 2 м над землей.
Td - Температура точки росы - температура, при понижении до которой содержащийся в воздухе водяной пар достигнет насыщения.
f - Относительная влажность воздуха - влажноcть воздуха, измеренная на высоте 2 м над землей.
Te - Эффективная температура - температура, которую ощущает одетый по сезону человек в тени. Характеристика душности погоды. При расчете учитывается влияние влажности воздуха и скорости ветра на теплоощущения человека.
Tes - Эффективная температура на солнце - температура, которую ощущает человек, с поправкой на солнечный нагрев. Характеристика знойности погоды. Зависит от высоты солнца над горизонтом, облачности и скорости ветра. Ночью, в пасмурную погоду, а также при ветре 12 м/с и более поправка равна нулю.
P - Атмосферное давление - приведенное к уровню моря атмосферное давление.
Po - Атмосферное давление - измеренное на уровне метеостанции атмосферное давление.
Tmin - Минимальная температура - минимум температуры воздуха на высоте 2 м над землей.
Tmax - Максимальная температура - максимум температуры воздуха на высоте 2 м над землей.
R - Количество осадков - Количество выпавших осадков за период времени, мм. При наведении курсора мыши на число - период времени, за который выпало указанное количество осадков.
R24 - Количество осадков - Количество выпавших осадков за 24 часа, мм.
S - Снежный покров - Высота снежного покрова, см. При наведении курсора мыши на число - состояние снежного покрова и степень покрытия местности в баллах.